Location: Zagreb
(45.8000°N, 16.0000°E)
Time: 19:07:41
(UTC+02:00)

A-11 Canister half - Pass Details

Date: 14 August 2022
Orbit: 1524 x 1684 km, 47.3° (Epoch: 05 October)

Event Time Altitude Azimuth Distance (km) Brightness Sun altitude
Rises 05:28:42 0° 224° (SW) 4,885 - -4.9°
Exits shadow 05:29:33 - 224° (SW) 4,626 10.9 -4.8°
Reaches altitude 10° 05:31:53 10° 221° (SW) 3,914 10.6 -4.4°
Maximum altitude 05:41:40 58° 146° (SE) 1,920 9.7 -2.9°
Drops below altitude 10° 05:51:30 10° 71° (ENE) 3,944 13.4 -1.3°
Sets 05:54:43 0° 68° (ENE) 4,924 16.7 -0.8°
